N7DTY Weather Reports


Display with metric or nautical units.
time (UTC)temp
F
wind
direction
speed
MPH
gust
MPH
rain 1hr
in
rain 24hr
in
rain mn
in
humidity
%
barometer
mb
20210618183027 64 194 2.0 12.0 0.00 0.00 0.00 76 1019.1
20210618181545 64 234 3.0 8.0 0.00 0.00 0.00 76 1019.1
20210618180026 64 165 3.0 9.0 0.00 0.00 0.00 75 1019.2
20210618174533 63 170 2.0 9.0 0.00 0.00 0.00 76 1019.4
20210618173040 62 223 1.0 5.0 0.00 0.00 0.00 77 1019.4
20210618171520 61 177 5.0 10.0 0.00 0.00 0.00 77 1019.2
20210618170034 61 187 3.0 10.0 0.00 0.00 0.00 78 1019.3
20210618164511 60 186 3.0 11.0 0.00 0.00 0.00 79 1019.5
20210618163003 60 182 3.0 9.0 0.00 0.00 0.00 80 1019.5
20210618161633 60 139 3.0 8.0 0.00 0.00 0.00 80 1019.5
20210618160102 59 192 2.0 10.0 0.00 0.00 0.00 83 1019.5
20210618154653 58 157 1.0 6.0 0.00 0.00 0.00 83 1019.4
20210618153233 58 167 1.0 4.0 0.00 0.00 0.00 83 1019.5
20210618151739 57 178 1.0 3.0 0.00 0.00 0.00 83 1019.5
20210618150210 57 292 0.0 2.0 0.00 0.00 0.00 83 1019.4
20210618144711 57 355 0.0 2.0 0.00 0.00 0.00 83 1019.2
20210618143110 57 355 0.0 1.0 0.00 0.00 0.00 84 1019.3
20210618141559 56 53 1.0 3.0 0.00 0.00 0.00 83 1019.2
20210618140052 55 232 0.0 2.0 0.00 0.00 0.00 82 1019.3
20210618134555 55 232 1.0 2.0 0.00 0.00 0.00 84 1019.1
20210618133120 54 232 0.0 2.0 0.00 0.00 0.00 85 1018.9
20210618131623 53 293 0.0 1.0 0.00 0.00 0.00 86 1018.7
20210618130033 52 293 0.0 2.0 0.00 0.00 0.00 86 1018.5
20210618124612 52 293 0.0 1.0 0.00 0.00 0.00 85 1018.6
20210618123045 53 293 0.0 1.0 0.00 0.00 0.00 84 1018.6
20210618121552 53 293 0.0 2.0 0.00 0.00 0.00 83 1018.6
20210618120052 54 278 0.0 1.0 0.00 0.00 0.00 79 1018.6
20210618114533 55 278 0.0 2.0 0.00 0.00 0.00 78 1018.5
20210618113021 55 278 0.0 2.0 0.00 0.00 0.00 76 1018.4
20210618111528 55 231 1.0 3.0 0.00 0.00 0.00 76 1018.2
20210618110045 55 244 1.0 3.0 0.00 0.00 0.00 77 1018.2
20210618104539 54 154 0.0 2.0 0.00 0.00 0.00 81 1018.3
20210618103041 54 153 0.0 1.0 0.00 0.00 0.00 82 1018.5
20210618101521 55 153 0.0 1.0 0.00 0.00 0.00 84 1018.4
20210618100029 56 188 0.0 3.0 0.00 0.00 0.00 84 1018.3
20210618094517 56 298 1.0 5.0 0.00 0.00 0.00 85 1018.3
20210618093012 56 169 2.0 5.0 0.00 0.00 0.00 84 1018.3
20210618091513 56 203 2.0 6.0 0.00 0.00 0.00 82 1018.3
20210618090011 56 180 0.0 5.0 0.00 0.00 0.00 81 1018.3
20210618084523 55 205 1.0 4.0 0.00 0.00 0.00 82 1018.5
20210618083010 55 196 0.0 2.0 0.00 0.00 0.00 83 1018.6
20210618081503 54 177 1.0 3.0 0.00 0.00 0.00 81 1018.7
20210618080001 55 179 0.0 1.0 0.00 0.00 0.00 83 1018.8
20210618074740 55 179 0.0 0.0 0.00 0.00 0.00 81 1018.8
20210618073144 56 178 0.0 0.0 0.00 0.00 0.00 81 1018.8
20210618071741 56 179 0.0 0.0 0.00 0.00 0.00 80 1018.8
20210618070118 56 179 0.0 0.0 0.00 0.00 0.00 83 1018.9
20210618064632 56 179 0.0 2.0 0.00 0.00 0.00 82 1018.9
20210618063238 57 179 0.0 1.0 0.00 0.00 0.00 83 1018.9
20210618060125 58 179 0.0 2.0 0.00 0.00 0.00 80 1018.9
20210618054611 59 179 0.0 1.0 0.00 0.00 0.00 79 1018.9
20210618053144 60 179 0.0 1.0 0.00 0.00 0.00 76 1018.6
20210618051710 61 179 0.0 3.0 0.00 0.00 0.00 77 1018.6
20210618050122 61 178 1.0 4.0 0.00 0.00 0.00 74 1018.7
20210618044637 61 176 1.0 3.0 0.00 0.00 0.00 73 1018.6
20210618043129 62 236 0.0 2.0 0.00 0.00 0.00 78 1018.4
20210618041554 62 109 1.0 4.0 0.00 0.00 0.00 76 1018.3
20210618040207 63 174 0.0 2.0 0.00 0.00 0.00 75 1018.2
20210618034634 63 186 1.0 4.0 0.00 0.00 0.00 74 1018.2
20210618033121 64 148 0.0 4.0 0.00 0.00 0.00 74 1018.3
20210618031606 64 188 1.0 3.0 0.00 0.00 0.00 70 1018.5
20210618030050 65 279 0.0 3.0 0.00 0.00 0.00 72 1018.6
20210618024655 65 217 1.0 5.0 0.00 0.00 0.00 71 1018.6
20210618023052 66 169 1.0 6.0 0.00 0.00 0.00 69 1018.8
20210618021535 67 196 2.0 5.0 0.00 0.00 0.00 66 1019.0
20210618020112 68 222 2.0 6.0 0.00 0.00 0.00 69 1019.1
20210618014620 70 184 2.0 6.0 0.00 0.00 0.00 62 1019.3
20210618013052 71 164 3.0 6.0 0.00 0.00 0.00 57 1019.4
20210618011604 72 172 1.0 4.0 0.00 0.00 0.00 55 1019.5
20210618010044 73 198 1.0 4.0 0.00 0.00 0.00 54 1019.7
20210618004610 72 149 1.0 4.0 0.00 0.00 0.00 58 1019.9
20210618003105 73 192 2.0 9.0 0.00 0.00 0.00 58 1019.8
20210618001535 73 213 2.0 5.0 0.00 0.00 0.00 60 1019.9
20210618000051 73 207 3.0 7.0 0.00 0.00 0.00 58 1020.0
20210617234523 74 151 2.0 7.0 0.00 0.00 0.00 54 1020.1
20210617233020 74 194 3.0 7.0 0.00 0.00 0.00 53 1020.3
20210617231519 74 160 3.0 8.0 0.00 0.00 0.00 57 1020.3
20210617230035 73 199 3.0 6.0 0.00 0.00 0.00 57 1020.4
20210617224517 72 187 2.0 6.0 0.00 0.00 0.00 59 1020.6
20210617223017 73 107 3.0 6.0 0.00 0.00 0.00 61 1020.7
20210617221515 74 187 2.0 6.0 0.00 0.00 0.00 61 1020.8
20210617220012 74 182 1.0 7.0 0.00 0.00 0.00 62 1020.6
20210617214511 74 174 2.0 7.0 0.00 0.00 0.00 61 1020.7
20210617211616 72 171 1.0 5.0 0.00 0.00 0.00 63 1021.0
20210617210308 72 242 1.0 5.0 0.00 0.00 0.00 60 1021.1
20210617204628 72 183 1.0 5.0 0.00 0.00 0.00 63 1021.2
20210617203342 71 185 1.0 5.0 0.00 0.00 0.00 62 1021.3
20210617201641 71 179 0.0 4.0 0.00 0.00 0.00 63 1021.4
20210617200121 70 286 2.0 4.0 0.00 0.00 0.00 63 1021.7
20210617194621 70 194 2.0 3.0 0.00 0.00 0.00 64 1022.0
20210617193059 69 355 0.0 4.0 0.00 0.00 0.00 63 1021.8
20210617191555 68 271 0.0 3.0 0.00 0.00 0.00 62 1021.7
20210617190100 67 196 1.0 4.0 0.00 0.00 0.00 70 1022.0
20210617184603 67 155 0.0 4.0 0.00 0.00 0.00 70 1022.2